sat.trackr.live / text

‹ back to catalog

STARLINK-31328

NORAD 58880 · 2024-020E

PAYLOAD ACTIVE UNKNOWN

§ Identity

Operator
Country
US
Launch date
2024-01-29
Launch site
AFWTR
Launch vehicle
Mass (kg)
RCS (m²)

Purposes: comms

External: N2YO · Heavens-Above · Gunter

§ Orbital elements

Epoch: 2026-05-25T04:05:57.621120Z

Period
94.11 min
Inclination
53.1609°
Eccentricity
0.0000944
Mean motion
15.30202651 rev/d
Perigee alt
474.6 km
Apogee alt
475.9 km
Semi-major
6,853.3 km
B*
1.7766e-4
RAAN
311.9630°
Arg perigee
94.3512°
Mean anomaly
265.7597°
Rev number
12,999

§ Raw data

STARLINK-313281 58880U 24020E   26145.17080580  .00004907  00000+0  17766-3 0  99932 58880  53.1609 311.9630 0000944  94.3512 265.7597 15.30202651129995

JSON: /api/v1/satellites/58880 · /tle

For live sub-satellite position, see the globe view (requires WebGL).

§ Visibility from observer

Set your observer location to see the next 7 days of passes ≥ 10°. The values pass through the URL so the page stays shareable.

No JS? Fill the form by hand. The geolocation button needs JavaScript.